Regional Weather Roundup
Issued by NWS Upton, NY

Current Version | Previous Version | Graphics & Text | Print | Product List | Glossary Off
Versions: 1 2 3 4 5 6 7 8 9 10 11 12 13 14 15 16 17 18 19 20 21 22 23 24 25 26 27
000 ASUS41 KOKX 262309 RWROKX REGIONAL WEATHER ROUNDUP NATIONAL WEATHER SERVICE NEW YORK NY 700 PM EDT FRI MAY 26 2017 NOTE: "FAIR" INDICATES FEW OR NO CLOUDS BELOW 12,000 FEET WITH NO SIGNIFICANT WEATHER AND/OR OBSTRUCTIONS TO VISIBILITY. NYZ071-072-176-178-NJZ106-104-270000- NEW YORK CITY METRO AREA CITY SKY/WX TMP DP RH WIND PRES REMARKS Central Park MOSUNNY 72 54 53 MISG 29.69R Wall St Helipt PTCLDY 70 57 64 W13 29.68R Bronx Bot Gard N/A 73 50 43 NW12 29.68R LaGuardia APRT MOSUNNY 75 51 43 NW18G26 29.65R Kennedy INTL MOSUNNY 73 58 59 W17 29.67R Breezy Point N/A 64 N/A N/A W9 N/A Newark/Liberty CLOUDY 72 56 57 W16 29.67R Teterboro PTSUNNY 74 53 48 NW10G21 29.65R $$ NYZ177-179-078>081-270000- LONG ISLAND NEW YORK CITY SKY/WX TMP DP RH WIND PRES REMARKS Jones Beach N/A 66 N/A N/A W13G22 N/A Matinecock PT NOT AVBL Farmingdale SUNNY 74 52 46 W13G18 29.65R MacArthur/ISP PTSUNNY 73 54 51 W10G21 29.64R Shirley CLOUDY 72 56 57 NW10 29.65R Mt Sinai Harb N/A 68 N/A N/A W7 N/A Westhampton PTSUNNY 67 58 72 VRB3 29.65R East Hampton N/A 61 56 83 SE5 29.65R Montauk N/A 61 58 90 S3 29.66R $$ NYZ052-065-067-270000- HUDSON VALLEY CITY SKY/WX TMP DP RH WIND PRES REMARKS White Plains MOSUNNY 70 53 54 NW15 29.66R Larchmont Harb N/A 73 N/A N/A W13 N/A Croton O-T Hud N/A 70 N/A N/A NW14 N/A Newburgh PTSUNNY 68 57 68 NW9 29.70R Montgomery CLOUDY 69 53 56 NW10 29.69R Poughkeepsie LGT RAIN 66 56 70 NW7 29.67R Albany DRIZZLE 59 56 89 NE7 29.70R $$ NJZ001-105-106-008-010-013-015-019>022-104-270000- NEW JERSEY CITY SKY/WX TMP DP RH WIND PRES REMARKS Newark/Liberty CLOUDY 72 56 57 W16 29.67R Teterboro PTSUNNY 74 53 48 NW10G21 29.65R Caldwell MOSUNNY 75 52 44 NW9G24 29.68R Somerville CLOUDY 70 56 61 W6 29.69R Linden CLOUDY 71 55 55 NW12G18 29.69R Perth Amboy N/A 70 N/A N/A W17 N/A Sussex PTSUNNY 69 54 58 CALM 29.71R Andover N/A 70 53 54 N6 29.71R Trenton CLOUDY 70 54 56 NW6 29.72R Millville CLOUDY 69 59 70 W10 29.76R Atlantic City MOSUNNY 73 55 53 W12 29.73R Wrightstown CLOUDY 70 57 63 NW7 29.70R Toms River CLOUDY 69 58 67 NW8 29.72R Belmar CLOUDY 70 55 59 W9 29.71R $$ PAZ047>061-062-071-270000- EASTERN PENNSYLVANIA CITY SKY/WX TMP DP RH WIND PRES REMARKS Philadelphia PTSUNNY 73 52 47 W18 29.75R Allentown CLOUDY 70 54 56 W6 29.73R Scranton CLOUDY 67 55 65 NW9 29.75R $$ CTZ002-004>006-009-010-012-RIZ004-006-007-MAZ004-011-015-270000- SOUTHERN NEW ENGLAND IN CT CITY SKY/WX TMP DP RH WIND PRES REMARKS Bradley INTL CLOUDY 64 56 75 NW10 29.65R Hartford CLOUDY 66 56 70 NW10G18 29.65R Danbury CLOUDY 68 54 60 W10 29.67R Wtrbury/Oxford PTSUNNY 66 54 63 N14G21 29.67R Bridgeport PTSUNNY 74 54 49 W15G21 29.63R Meriden LGT RAIN 63 60 90 CALM 29.65R New Haven CLOUDY 65 57 75 SE6 29.64R Chester MOCLDY 63 61 94 CALM 29.65R Groton CLOUDY 59 55 87 CALM 29.64R Wilimantic CLOUDY 64 58 80 N3 29.64R IN RI CITY SKY/WX TMP DP RH WIND PRES REMARKS Providence LGT RAIN 59 58 96 NW3 29.65R Block Island CLOUDY 59 56 89 SW7 29.66R Westerly CLOUDY 62 56 80 CALM 29.65R IN MA CITY SKY/WX TMP DP RH WIND PRES REMARKS Boston CLOUDY 59 54 83 W10 29.64R Worcester CLOUDY 55 52 89 W8 29.65R Westfield CLOUDY 61 58 90 NW6 29.65R Provincetown CLOUDY 51 49 92 N6 29.65R Nantucket LGT RAIN 54 52 93 W9 29.65R $$ ANZ330-335-338-340-345-350-353-355-270000- COASTAL MARINE OBSERVATIONS STATION/POSITION TIME SKY/WX TEMP WIND PRES VSBY WAVE AIR SEA DIR/SP/G HT/PER (UTC) (F) (DEG/KT/KT) (MB) (MI) (FT/S) NY HARB ENTRANCE 2150 63 57 290/ 6/ 8 1004.1 4/ 9 20 S FIRE ISLAND 2250 60 56 230/ 8/ 10 1004.0 5/ 8 GREAT SOUTH BAY 2215 72 63 300/ 10/ 12 N/A 23 SSW MONTAUK P 2150 59 55 1003.5 7/ 8 15 E BARNEGAT LI 2230 58 N/A 5/ 8 HUDSON CANYON 2150 60 55 240/ 14/ 17 1004.5 6/ 8 KINGS POINT 2230 71 61 330/ 16/ 19 1003.7 EXECUTION ROCKS 2245 73 N/A CENTRAL LI SOUND NOT AVBL EASTERN LI SOUND NOT AVBL ROBBINS REEF 2230 71 270/ 14/ 18 1004.8 $$ >>>>>>>>>>>>>>>>>>>>>>>>>>>> KEY <<<<<<<<<<<<<<<<<<<<<<<<<<< > < > SKY/WX - Sky Condition/Present Weather < > TMP - Temperature in Fahrenheit < > DP - Dew Point in Fahrenheit < > RH - Relative Humidity in Percent < > WIND - Direction (from) and Speed in MPH < > PRES - Mean Sea Level Pressure (inches of Hg) < > WCI - Wind Chill Index < > VSB - VISIBILITY IN MILES < > HX - HEAT INDEX < > TC - TEMPERATURE IN CELSIUS < > VRB - VARIABLE WIND DIRECTION < > < >>>>>>>>>>>>>>>>>>>>>>>>>>>> KEY <<<<<<<<<<<<<<<<<<<<<<<<<<<

USA.gov is the U.S. government's official web portal to all federal, state and local government web resources and services.